Location: Blairvadach
(56.2780°N, 6.9720°W)
Time: 01:59:22
(UTC+00:00)

Envisat - Pass Details

Date: 21 November 2019
Orbit: 764 x 766 km, 98.1° (Epoch: 08 December)

Event Time Altitude Azimuth Distance (km) Brightness Sun altitude
Rises 19:24:19 0° 201° (SSW) 3,225 6.5 -26.2°
Reaches altitude 10° 19:26:59 10° 214° (SW) 2,303 5.8 -26.6°
Maximum altitude 19:31:10 25° 270° (W) 1,502 5.2 -27.2°
Drops below altitude 10° 19:35:23 10° 325° (NW) 2,316 5.9 -27.8°
Sets 19:38:05 0° 339° (NNW) 3,247 6.6 -28.2°
